TimeMST,TemperatureF,Dew PointF,Humidity,Sea Level PressureIn,VisibilityMPH,Wind Direction,Wind SpeedMPH,Gust SpeedMPH,PrecipitationIn,Events,Conditions,WindDirDegrees,DateUTC
12:53 AM,26.1,12.9,58,30.44,10.0,Calm,Calm,-,N/A,,Overcast,0,2012-11-13 07:53:00
1:53 AM,23.0,15.1,72,30.44,10.0,WSW,3.5,-,N/A,,Clear,250,2012-11-13 08:53:00
2:53 AM,19.9,12.0,71,30.45,10.0,Calm,Calm,-,N/A,,Clear,0,2012-11-13 09:53:00
3:53 AM,21.9,14.0,72,30.44,10.0,Calm,Calm,-,N/A,,Clear,0,2012-11-13 10:53:00
4:53 AM,19.9,12.9,74,30.47,10.0,Calm,Calm,-,N/A,,Clear,0,2012-11-13 11:53:00
5:53 AM,18.0,10.9,74,30.49,10.0,Calm,Calm,-,N/A,,Clear,0,2012-11-13 12:53:00
6:53 AM,16.0,10.9,81,30.51,10.0,Calm,Calm,-,N/A,,Clear,0,2012-11-13 13:53:00
7:53 AM,21.0,14.0,74,30.53,10.0,Calm,Calm,-,N/A,,Clear,0,2012-11-13 14:53:00
8:53 AM,28.9,16.0,58,30.51,10.0,Calm,Calm,-,N/A,,Clear,0,2012-11-13 15:53:00
9:53 AM,34.0,16.0,48,30.48,10.0,Calm,Calm,-,N/A,,Clear,0,2012-11-13 16:53:00
10:53 AM,37.9,16.0,41,30.46,10.0,Calm,Calm,-,N/A,,Clear,0,2012-11-13 17:53:00
11:53 AM,42.1,15.1,34,30.43,10.0,Variable,3.5,-,N/A,,Clear,0,2012-11-13 18:53:00
12:53 PM,44.1,12.0,27,30.39,10.0,Calm,Calm,-,N/A,,Clear,0,2012-11-13 19:53:00
1:53 PM,45.0,10.9,25,30.38,10.0,Calm,Calm,-,N/A,,Clear,0,2012-11-13 20:53:00
2:53 PM,46.0,12.0,25,30.36,10.0,Calm,Calm,-,N/A,,Clear,0,2012-11-13 21:53:00
3:53 PM,46.0,10.9,24,30.35,10.0,Calm,Calm,-,N/A,,Clear,0,2012-11-13 22:53:00
4:53 PM,43.0,10.9,27,30.37,10.0,NW,4.6,-,N/A,,Clear,310,2012-11-13 23:53:00
5:53 PM,37.9,10.9,33,30.40,10.0,NNW,5.8,-,N/A,,Clear,330,2012-11-14 00:53:00
6:53 PM,30.0,8.1,40,30.43,10.0,SW,3.5,-,N/A,,Clear,230,2012-11-14 01:53:00
7:53 PM,30.0,9.0,41,30.41,10.0,Calm,Calm,-,N/A,,Clear,0,2012-11-14 02:53:00
8:53 PM,32.0,10.0,40,30.39,10.0,Calm,Calm,-,N/A,,Clear,0,2012-11-14 03:53:00
9:53 PM,28.9,10.0,45,30.40,10.0,Calm,Calm,-,N/A,,Clear,0,2012-11-14 04:53:00
10:53 PM,28.0,15.1,58,30.39,10.0,Calm,Calm,-,N/A,,Clear,0,2012-11-14 05:53:00
11:53 PM,27.0,12.0,53,30.38,10.0,Calm,Calm,-,N/A,,Clear,0,2012-11-14 06:53:00